CDT,Max TemperatureF,Mean TemperatureF,Min TemperatureF,Max Dew PointF,MeanDew PointF,Min DewpointF,Max Humidity, Mean Humidity, Min Humidity, Max Sea Level PressureIn, Mean Sea Level PressureIn, Min Sea Level PressureIn, Max VisibilityMiles, Mean VisibilityMiles, Min VisibilityMiles, Max Wind SpeedMPH, Mean Wind SpeedMPH, Max Gust SpeedMPH,PrecipitationIn, CloudCover, Events, WindDirDegrees
2012-3-1,75,56,36,39,29,23,59,39,19,29.91,29.68,29.51,10,10,10,36,13,46,0.00,0,,175
2012-3-2,61,47,32,47,35,27,82,63,43,29.96,29.68,29.37,10,10,8,24,10,29,0.01,5,Rain-Thunderstorm,337
2012-3-3,50,40,29,30,23,18,89,59,29,30.11,30.03,29.97,10,10,10,33,5,25,0.00,2,,277
2012-3-4,67,48,29,31,26,21,69,48,26,30.21,30.01,29.91,10,10,10,29,13,39,0.00,1,,256
2012-3-5,67,48,29,32,25,19,69,44,18,30.36,30.23,30.11,10,10,10,22,10,35,0.00,0,,141
2012-3-6,72,64,55,45,37,28,55,40,24,30.09,29.96,29.87,10,10,10,40,24,54,0.00,0,,186
2012-3-7,70,65,60,56,51,45,73,63,53,29.94,29.90,29.85,10,10,10,33,21,47,T,6,,190
2012-3-8,64,47,30,56,36,28,96,80,64,30.54,30.25,29.94,10,8,2,26,10,136,0.30,6,Rain-Thunderstorm,8
2012-3-9,60,43,25,29,26,23,92,58,24,30.57,30.51,30.43,10,10,9,13,5,18,0.00,0,,54
2012-3-10,66,49,31,31,27,23,75,48,20,30.42,30.30,30.15,10,10,10,15,6,18,0.00,0,,137
2012-3-11,57,51,45,55,48,30,100,71,41,30.14,29.98,29.86,10,7,1,20,7,56,0.81,7,Rain-Thunderstorm,163
2012-3-12,74,63,51,50,49,46,96,67,38,29.99,29.88,29.81,10,10,10,30,16,40,0.00,0,,203
2012-3-13,83,69,54,57,51,46,77,53,28,30.05,30.00,29.93,10,10,10,24,12,31,0.00,0,,182
2012-3-14,77,71,64,63,60,55,87,73,58,30.05,30.00,29.96,10,10,10,29,16,53,0.00,4,,200
2012-3-15,81,72,63,63,60,56,81,69,56,30.08,30.03,29.97,10,10,10,23,12,29,0.00,5,,185
2012-3-16,82,73,63,64,61,58,93,72,51,30.04,29.99,29.93,10,10,10,23,13,30,0.00,2,,182
2012-3-17,79,72,65,61,59,55,81,63,45,30.00,29.95,29.87,10,10,10,24,13,30,T,4,,186
2012-3-18,78,72,65,59,57,54,78,62,46,29.99,29.91,29.85,10,10,10,25,14,32,T,3,Rain,177
2012-3-19,76,66,55,61,57,55,100,79,57,29.83,29.77,29.69,10,6,1,35,13,47,3.06,7,Rain-Thunderstorm,111
2012-3-20,59,57,55,56,55,53,100,97,93,29.87,29.81,29.76,10,8,2,12,6,16,1.05,8,Rain,107
2012-3-21,58,53,47,56,53,46,100,93,86,29.91,29.82,29.74,10,7,2,17,5,32,0.77,7,Rain,215
2012-3-22,62,54,45,52,47,44,100,82,64,29.95,29.88,29.82,10,10,2,29,10,37,0.23,5,Rain,142
2012-3-23,59,51,43,49,46,43,100,86,72,29.98,29.91,29.87,10,8,2,14,6,18,0.06,5,Rain,225
2012-3-24,72,58,44,52,48,43,100,74,47,30.05,30.00,29.97,10,10,10,18,5,23,0.00,0,,264
2012-3-25,78,62,46,53,50,46,100,69,37,30.12,30.06,30.02,10,10,10,8,2,9,0.00,0,,168
2012-3-26,82,67,52,55,52,48,89,62,35,30.10,30.02,29.94,10,10,7,17,7,23,0.00,0,,164
2012-3-27,81,72,62,58,56,54,78,59,39,30.01,29.96,29.91,10,10,9,25,12,32,0.00,0,,191
2012-3-28,81,70,59,61,57,54,84,68,52,30.01,29.95,29.87,10,10,10,16,9,22,0.00,3,,187
2012-3-29,80,69,57,60,56,53,86,66,45,29.92,29.85,29.76,10,10,10,21,10,26,0.00,0,,179
2012-3-30,79,70,61,63,59,55,97,75,52,29.84,29.79,29.74,10,10,7,23,8,28,0.00,2,,225
2012-3-31,83,71,58,65,59,55,90,65,40,29.86,29.80,29.75,10,10,8,13,6,15,0.00,1,,193